Location: Martley
(52.2333°N, 2.3667°W)
Time: 08:36:17
(UTC+00:00)

DMSP B5D1-3 - Pass Details

Date: 11 December 2019
Orbit: 766 x 781 km, 98.5° (Epoch: 20 January)

Event Time Altitude Azimuth Distance (km) Brightness Sun altitude
Rises 05:56:07 0° 170° (S) 3,255 8.1 -18.9°
Reaches altitude 10° 05:58:26 10° 172° (S) 2,333 7.3 -18.6°
Maximum altitude 06:03:34 70° 256° (WSW) 833 4.4 -17.8°
Enters shadow 06:08:45 10° 341° (NNW) 2,348 6.7 -17.0°
